Flag for Brazil Weather past 2 weeks in Porto Alegre, Rio Grande do Sul, Brazil

Now
70 °F

Sunny.


Feels Like: 70 °F
Forecast: 64 / 82 °F
Wind: 1 mph from North

Location: Porto Alegre Aero-Porto

Current Time: May 22, 2015 at 9:41:56 AM

Latest Report: May 22, 2015 at 9:00 AM


Visibility: 10 mi

Pressure: 30.12 "Hg

Humidity: 78%

Dew point: 63 °F

Location of Porto AlegreLocation

Historic Weather in Porto Alegre — Graph

°F

Porto Alegre temperature yesterday

Maximum temperature yesterday: 84 °F (at 4:00 PM)
Minimum temperature yesterday: 61 °F (at 7:00 AM)
Average temperature yesterday: 72 °F

Past Weeks' High & Low Weather Summary

 TemperatureHumidityPressure
High84 °F (May 21, 4:00 PM)100% (May 8, 2:00 AM)30.27 "Hg (May 8, 2:00 AM)
Low50 °F (May 8, 3:00 AM)40% (May 21, 4:00 PM)29.95 "Hg (May 10, 3:00 PM)
Average66 °F81%30.14 "Hg
* Reported May 7 8:00 AM — May 22 8:00 AM, Porto Alegre, Weather by CustomWeather, © 2015

Note: Actual official high and low records may vary slightly from our data, if they occured in-between our weather recording intervals... More about our weather records

Advertising

Porto Alegre weather history for previous 24 hours

 ConditionsComfort  
Time TempWeatherWind HumidityBarometerVisibility
8:00 AM
Fri, May 22
64 °FClear.3 mph88%30.12 "Hg5 mi
7:00 AM63 °FClear.No wind94%30.09 "Hg6 mi
6:00 AM61 °FClear.2 mph94%30.09 "Hg4 mi
5:00 AM63 °FClear.No wind88%30.09 "Hg10 mi
4:00 AM64 °FClear.2 mph88%30.09 "Hg10 mi
3:00 AM64 °FClear.2 mph88%30.09 "Hg10 mi
2:00 AM64 °FClear.1 mph94%30.09 "Hg10 mi
1:00 AM66 °FClear.2 mph88%30.09 "Hg10 mi
12:00 AM66 °FClear.5 mph88%30.09 "Hg10 mi
11:00 PM
Thu, May 21
68 °FClear.5 mph83%30.09 "Hg10 mi
10:00 PM70 °FClear.5 mph83%30.09 "Hg10 mi
9:00 PM70 °FClear.9 mph83%30.09 "Hg10 mi
8:00 PM73 °FClear.8 mph74%30.09 "Hg10 mi
7:00 PM75 °FClear.10 mph69%30.09 "Hg10 mi
6:00 PM73 °FClear.3 mph69%30.09 "Hg10 mi
5:00 PM82 °FClear.3 mph45%30.07 "Hg10 mi
4:00 PM84 °FSunny.5 mph40%30.07 "Hg10 mi
3:00 PM82 °FSunny.5 mph42%30.09 "Hg10 mi
2:00 PM82 °FSunny.9 mph42%30.09 "Hg10 mi
1:00 PM81 °FPassing clouds.8 mph45%30.12 "HgN/A
12:00 PM79 °FPassing clouds.3 mph51%30.15 "HgN/A
11:00 AM77 °FPassing clouds.3 mph57%30.15 "HgN/A
10:00 AM73 °FSunny.6 mph65%30.18 "Hg10 mi
9:00 AM70 °FSunny.3 mph78%30.18 "Hg10 mi
Weather by CustomWeather, © 2015

See weather overviewHow to use our weather pages